Weather in Lyambir

Russia / Republic of Mordovia     54°16′58″N   45°07′18″E
temp.,
°C
wind,
m/s
gust,
m/s
humid.,
%
clouds,
%
prec.,
mm/h
press.,
hPa
HPBL,
m
5 december, sun
sun500:00−3wsw5108148 0.0 1013733
03:00−3w498463 0.0 1014688
06:00−4wsw38895 0.0 1015363
09:00−4wsw368760 0.0 1016286
12:00−2w3473100 0.0 1017395
15:00−2wsw2379100 0.0 1018179
18:00−2sw2383100 0.0 1018168
21:00−3ssw11915 0.0 101920
6 december, mon
mon600:00−4wsw11945 0.0 102116
03:00−4ssw11955 0.0 102216
06:00−5s119690 0.0 102212
09:00−4s2293100 0.0 102449
12:00−2s238074 0.0 1024179
15:00−3sse1186100 0.0 102520
18:00−3sse2286100 0.0 102658
21:00−3sse2683100 0.0 1027181
7 december, tue
tue700:00−3se388361 0.0 1027241
03:00−4sse398499 0.0 1027254
06:00−4se5118398 0.0 1027323
09:00−3sse61478100 0.0 1027466
12:00−2sse71568100 0.0 1025650
15:00−1sse71565100 0.0 1024560
18:00−3sse81795100 1.3 1023566
21:00−1sse91995100 5.3 1021569
8 december, wed
wed800:000s81894100 2.8 1020632
03:00+1s91994100 3.2 1020537
06:00+1s81895100 0.0 1019527
09:00+1s81797100 0.0 1020503
12:00+2s71798100 0.0 1020491
15:00+2s51692100 0.0 1020425
18:00+2sse51591100 0.0 1020383
21:00+2sse51590100 0.0 1020410
9 december, thu
thu900:00+1sse41489100 0.0 1020394
03:00+1sse51389100 0.0 1020374
06:00+1sse51389100 0.0 1020354
09:000se51288100 0.0 1020356
12:00+1se41087100 0.0 1019434
15:000se4988100 0.0 1019344
18:00−1sse41090100 0.0 1019344
21:00−1sse4993100 0.0 1019346